Location: *
(51.0333°S, 178.4667°E)
Time: 14:32:25
(UTC+00:00)

Timation 1 Rocket - Pass Details

Date: 15 November 2019
Orbit: 899 x 908 km, 70.0° (Epoch: 04 December)

Event Time Altitude Azimuth Distance (km) Brightness Sun altitude
Exits shadow 10:56:47 30° 344° (NNW) 1,581 5.1 -19.5°
Maximum altitude 10:59:54 73° 63° (ENE) 962 4.3 -19.6°
Drops below altitude 10° 11:05:58 10° 146° (SE) 2,628 7.4 -19.8°
Sets 11:08:30 0° 147° (SSE) 3,574 8.2 -19.9°
